Location: Peterborough
(44.3091°N, 78.3197°W)
Time: 20:17:40
(UTC-04:00)

A-11 Canister half - Pass Details

Date: 10 December 2023
Orbit: 1515 x 1684 km, 47.2° (Epoch: 02 October)

Event Time Altitude Azimuth Distance (km) Brightness Sun altitude
Exits shadow 03:15:50 52° 94° (E) 1,990 9.6 -45.8°
Drops below altitude 10° 03:22:56 10° 103° (ESE) 3,931 11.6 -44.6°
Sets 03:26:07 0° 104° (ESE) 4,928 12.3 -44.0°
